Regional Weather Roundup
Issued by NWS Grand Forks, ND

Home | Current Version | Previous Version | Text Only | Print | Product List | Glossary On
Versions: 1 2 3 4 5 6 7 8 9 10 11 12 13 14 15 16 17 18 19 20 21 22 23 24 25 26 27 28 29 30 31 32 33 34 35 36 37 38 39 40 41 42 43 44 45 46 47 48 49 50
000
ASUS43 KFGF 300131
RWRFGF
PRAIRIE TO PINES  WEATHER ROUNDUP
NATIONAL WEATHER SERVICE EASTERN NORTH DAKOTA/GRAND FORKS ND
800 PM CDT FRI MAY 29 2015

 **SATELLITE DATA USED TO AUGMENT SKY COVER AT AUTOMATED STATIONS**
 *****  WEATHER ACROSS EASTERN NORTH DAKOTA  *****

CITY           SKY/WX    TMP DP  RH WIND       PRES   REMARKS
GRAND FORKS    MOSUNNY   52  35  52 N21G26    30.22R
GRAND FRKS AFB SUNNY     52  32  46 N18G25    30.23R
GRAND FRKS NWS   N/A     48 N/A N/A N10         N/A
DEVILS LAKE    SUNNY     52  30  43 NE18      30.26R
FARGO          PTCLDY    54  38  54 N22G30    30.17R
WAHPETON ARPT  MOCLDY    52  39  62 N15G24    30.15R
$$

 ***** WEATHER ACROSS CENTRAL AND WESTERN NORTH DAKOTA  *****

CITY           SKY/WX    TMP DP  RH WIND       PRES   REMARKS
BISMARCK       SUNNY     56  34  43 N13       30.27R
MINOT          SUNNY     55  31  39 N13       30.28R
JAMESTOWN      PTSUNNY   54  35  48 N16       30.21R
MINOT AFB      SUNNY     57  32  38 NW12      30.27R
GARRISON         N/A     56  32  40 N8        30.28R
WILLISTON      SUNNY     58  31  35 N6        30.28S
DICKINSON      SUNNY     54  35  48 N8        30.26S
HETTINGER      SUNNY     53  36  52 NE10      30.28S
$$

 *****  OTHER AIRPORT OBSERVATIONS IN OUR AREA  *****

CITY           SKY/WX    TMP DP  RH WIND       PRES   REMARKS
WALHALLA         N/A     46  28  49 MISG      30.30R
GRAFTON AIRPOR FAIR      48  32  53 N17G25    30.26R
VALLEY CITY AR FAIR      50  36  57 NE16G22   30.22R
CANDO          FAIR      48  30  49 NE14      30.29R
CAVALIER APRT  FAIR      48  32  53 N18G24    30.28R
GWINNER        NOT AVBL
SHEYENNE NWR     N/A     55  37  50 N13       29.95S
ROLLA          FAIR      46  28  49 N15       30.30R
 ***** THE ABOVE OBSERVATIONS ARE NON NWS ARE NOT QUALITY
       CONTROLLED AND MAY MIS-REPORT RAIN FOR SNOW...
$$

  *****  WEATHER ACROSS NORTHERN MINNESOTA  *****

CITY           SKY/WX    TMP DP  RH WIND       PRES   REMARKS
FLAG ISLAND    PTCLDY    48  36  61 N23       30.18R
WARROAD        CLEAR     48  36  61 NW13G18   30.20R
ROSEAU         CLEAR     48  34  57 N15       30.21R
HALLOCK        SUNNY     48  28  46 N18G24    30.26R
THF RVR FALLS  PTCLDY    50  32  50 N14G21    30.21R
BAUDETTE       CLEAR     51  35  54 N15G23    30.15
WASKISH        PTCLDY    52  37  58 N9G20     30.15R
CROOKSTON      SUNNY     52  36  54 N18       30.22R
STEPHEN NDAWN    N/A     50  32  50 N20         N/A
GREENBUSH NDAW   N/A     48  34  57 N17         N/A
$$
  *****  WEATHER ACROSS CENTRAL AND WEST MINNESOTA  *****

CITY           SKY/WX    TMP DP  RH WIND       PRES   REMARKS
FOSSTON        PTCLDY    48  36  61 N20       30.17R
BEMIDJI        MOCLDY    52  38  58 N10G17    30.13R
PARK RAPIDS    MOCLDY    55  39  54 N17       30.08R
ELBOW LAKE     FAIR      52  43  70 N16G25    30.11R
WADENA         CLOUDY    54  43  66 N12G20    30.09R
DETROIT LAKES  MOCLDY    52  41  66 N13G24    30.14R
MOORHEAD       PTCLDY    52  37  58 N24       30.18R
FERGUS FALLS   MOCLDY    52  41  66 N15G24    30.13R
MORRIS MN      MOCLDY    52  43  71 N20G26    30.10R
STAPLES        CLOUDY    52  43  71 N10       30.08R
$$
  *****  WEATHER ELSEWHERE ACROSS MINNESOTA  *****

CITY           SKY/WX    TMP DP  RH WIND       PRES   REMARKS
DULUTH         CLOUDY    53  45  74 N14G23    30.01R
INTRNTL FALLS  CLOUDY    50  39  66 N9        30.12R
ELY            NOT AVBL
CLOQUET        CLOUDY    52  43  71 N7G21     30.03R
WHEATON        CLOUDY    50  43  76 N18G25    30.16R
BRAINERD       CLOUDY    53  43  68 N16       30.05R
HIBBING        CLOUDY    51  42  71 N17       30.06R
ALEXANDRIA     CLOUDY    53  43  68 N12       30.09R
SAINT CLOUD    CLOUDY    53  47  79 N13G21    30.03R
MINNEAPOLIS    CLOUDY    57  55  93 N17       29.97R
$$

  *****  WEATHER ACROSS SOUTH DAKOTA  *****

CITY           SKY/WX    TMP DP  RH WIND       PRES   REMARKS
SIOUX FALLS    CLOUDY    50  44  80 N21       30.11R
BROOKINGS      CLOUDY    48  41  76 N17G24    30.14R
WATERTOWN      CLOUDY    49  41  74 N18       30.13R
HURON          CLOUDY    53  42  66 N20       30.17R
SISSETON         N/A     51  43  74 N23G33    30.14R
ABERDEEN       CLOUDY    55  42  61 N15       30.18R
MITCHELL       CLOUDY    52  45  77 N17       30.17R
PIERRE         MOSUNNY   52  39  61 N10       30.23R
MOBRIDGE       PTSUNNY   56  38  50 N9        30.22S
RAPID CITY     CLOUDY    55  40  56 N9        30.27R
$$

  *****  SOME WEATHER IN NEARBY STATES *****

CITY           SKY/WX    TMP DP  RH WIND       PRES   REMARKS
GLASGOW MT     SUNNY     60  33  36 SE10      30.24F
GREAT FALLS MT MOSUNNY   65  48  54 E13       30.08F
CHEYENNE WY    CLOUDY    47  45  93 N9        30.32S FOG
SCOTTSBLUFF NE CLOUDY    51  47  86 N8        30.29R
OMAHA NE       CLOUDY    67  62  84 NW17G30   29.94R
DES MOINES IA  MOCLDY    74  63  68 SW8       29.89R
DAVENPORT IA   CLOUDY    75  63  66 NW7       29.92R
CHICAGO IL     MOCLDY    79  63  57 SW6       29.91R
EAU CLAIRE WI  CLOUDY    65  62  90 N5        29.90R
LA CROSSE WI   LGT RAIN  68  64  87 N5        29.88R
$$

  *****  SOME NATIONAL WEATHER *****

CITY           SKY/WX    TMP DP  RH WIND       PRES   REMARKS
LA GUARDIA NY  MOCLDY    69  57  65 S12       30.23R
RALEIGH NC     PTCLDY    71  60  68 CALM      30.18R
ATLANTA GA     PTCLDY    78  61  55 SE5       30.14S
NEW ORLEANS LA MOCLDY    80  68  66 SE7       30.02F
OKLAHOMA CITY  MOCLDY    74  65  73 E8        29.95R
ALBUQUERQUE NM PTSUNNY   77  31  18 NW18G26   30.11R
SALT LAKE CITY PTSUNNY   75  43  31 N6        30.10F
LOS ANGELES CA CLOUDY    63  57  82 W13       29.90S
BOISE ID       PTSUNNY   85  33  15 S9        29.96F
SEATTLE WA     PTSUNNY   78  53  41 SW8       29.91S
$$

*** WEATHER ACROSS MANITOBA...SASKATCHEWAN AND ONTARIO ***
                ***ONTARIO***

CITY           SKY/WX    TMP DP  RH WIND       PRES   REMARKS
GERALDTON      CLOUDY    45  43  93 N9        29.98R
THUNDER BAY    CLOUDY    57  52  82 CALM      29.95R
SIOUX LOOKOUT  MOCLDY    48  37  66 N10G18    30.10R
TORONTO        MOCLDY    70  54  56 SE6       30.03F
BIG TROUT LK   CLOUDY    36  36 100 N6        30.10R
PICKLE LAKE    MOCLDY    43  36  75 NW10G24   30.06R
DRYDEN         PTCLDY    48  36  61 N7G17     30.12R
KENORA         MOCLDY    46  30  53 N13G20    30.18R
$$
                *** MANITOBA***

CITY           SKY/WX    TMP DP  RH WIND       PRES   REMARKS
BRANDON        MOSUNNY   48  28  46 NE16      30.33R
DAUPHIN        MOSUNNY   45  28  53 NE17      30.39R
ISLAND LAKE    LGT SNOW  32  28  86 N10G21    30.32R WCI  24
PILOT MOUND      N/A     45  28  53 N15G21      N/A
THE PAS        PTSUNNY   41  21  45 N7        30.41S
THOMPSON       FLURRIES  34  21  60 N10       30.40S
WINNIPEG       MOSUNNY   45  23  42 N22G28    30.32R
LYNN LAKE      MOSUNNY   39  21  48 VRB2      30.39S
CHURCHILL      CLOUDY    28  19  69 NE5       30.40R WCI  23
GILLAM         CLOUDY    30  23  74 N15G22    30.38R WCI  19
$$
                ***SASKATCHEWAN***

CITY           SKY/WX    TMP DP  RH WIND       PRES   REMARKS
ESTEVAN        NOT AVBL
KINDERSLEY     PTSUNNY   57  27  30 E17       30.25S
LLOYDMINSTER   PTSUNNY   55  25  30 E13       30.27S
PRINCE ALBERT  MOSUNNY   54  25  32 E6        30.34
REGINA         PTSUNNY   54  27  35 NE9       30.32R
YORKTON        SUNNY     50  25  37 NE10      30.33R
N. BATTLEFORD  SUNNY     55  27  33 E7        30.31F
LA RONGE       SUNNY     46  19  34 SE9       30.39F
SASKATOON      PTSUNNY   54  23  30 E8        30.34S
SWIFT CURRENT  CLOUDY    55  27  33 E10       30.25F
$$
NOTE: THESE ARE AUTOMATED STATIONS WITH LIMITED QUALITY CONTROL
      "FAIR" INDICATES FEW OR NO CLOUDS BELOW 12,000 FEET WITH NO
      SIGNIFICANT WEATHER AND/OR OBSTRUCTIONS TO VISIBILITY.
      SKY/WX - SKY CONDITION AND SIGNIFICANT WEATHER.
      TMP - AIR TEMPERATURE.    DP   - DEWPOINT TEMPERATURE.
      RH  - RELATIVE HUMIDITY.  PRES - PRESSURE.
      HX  - HEAT INDEX.         WCI  - WIND CHILL INDEX.
$



USA.gov is the U.S. government's official web portal to all federal, state and local government web resources and services.